Find Feng Yun 3D

NORAD ID: 43010 Int'l Des: 2017-072 Owner: NSMC Country: CN operational
LEOCIRCULARRETROGRADESSO

Live Position

Loading 3D Globe...

About Feng Yun 3D

Description loading...

Upcoming Passes

Passes for default location (London). Set your location on the main map for personalized predictions.

Altitude History

Loading altitude history...

Two-Line Element Set

1 43010U 17072A 26104.93115457 -.00000268 00000-0 -10477-3 0 9993
2 43010 99.0078 78.2270 0000785 185.8408 174.2759 14.19724760436013
Epoch: Apr 14, 2026 • Age: 8 hours

Current Status

Altitude 829.5 km
Velocity 7.44 km/s
Sub-Earth Point 2.25°N, 132.55°E
Launch Date Nov 14, 2017
Age 8.4 years
Type other

Technical Details

Classification Payload
Mass 2450.00 kg
Dry Mass 2250.00 kg
Total Mass 2450.00 kg
Length 4.40 m
Diameter 2.00 m
Span 10.00 m
Shape Box + 2 Pan
Manufacturer SISE
Bus Type FY-3
Phase Status In Orbit
Owner/State NSMC/CN

Most Searched